Snowfall_Accumulation
0.9 3.3 5.6 2.9 2.2 2.4 2.9 3.9 3.5 1.7 1.1 1.4 1.2 1.1 0.7 0.4 0.4 0.5 0.4 0.4 0.3 0.1 0.1 0.1 0.1 0.0 0.0 0.0 0.0 0.0 0.0 0.0 0.0 0.0 0.0 0.0 0.0 0.0 0.0 0.0 0.0 0.0 0.0 0.0
4.4 5.5 1.8 0.6 1.0 2.4 3.7 5.1 3.8 1.8 0.9 1.9 1.9 1.7 1.0 0.6 0.7 0.6 0.5 0.5 0.4 0.3 0.1 0.0 0.0 0.1 0.1 0.0 0.0 0.0 0.0 0.0 0.0 0.0 0.0 0.0 0.0 0.0 0.0 0.0 0.0 0.0 0.0 0.0
5.6 2.9 0.6 1.6 2.8 4.3 4.0 4.2 3.3 2.9 1.8 1.7 3.2 3.1 1.4 1.0 0.7 0.6 0.5 0.5 0.6 0.6 0.5 0.4 0.2 0.2 0.3 0.1 0.1 0.0 0.0 0.0 0.0 0.0 0.0 0.0 0.1 0.0 0.0 0.0 0.0 0.0 0.0 0.1
4.0 1.2 0.9 2.5 3.5 4.7 5.7 1.7 2.1 2.8 5.0 6.0 5.4 8.0 2.0 1.2 0.9 1.0 0.8 0.7 0.7 0.7 0.5 0.5 0.3 0.3 0.4 0.3 0.2 0.0 0.0 0.0 0.1 0.0 0.0 0.1 0.2 0.1 0.2 0.2 0.0 0.0 0.0 0.1
4.7 1.8 1.7 3.1 2.4 2.7 3.7 1.3 1.9 3.2 5.6 7.8 4.9 7.9 3.1 1.1 1.7 1.3 1.1 0.7 0.8 0.8 0.6 0.5 0.3 0.3 0.3 0.3 0.3 0.2 0.1 0.0 0.1 0.1 0.3 0.4 0.6 0.2 0.2 0.3 0.0 0.3 0.0 0.1
3.6 1.0 2.1 2.1 0.8 1.1 1.7 1.9 2.8 4.2 7.9 16.3 5.6 6.4 4.6 3.5 4.3 2.8 1.7 1.2 1.5 0.7 0.6 0.4 0.3 0.2 0.3 0.4 0.3 0.1 0.3 0.1 0.1 0.1 0.1 0.2 0.2 0.1 0.1 0.1 0.2 0.3 0.1 0.2
5.8 2.9 1.6 1.0 2.7 2.0 3.5 10.7 21.2 22.6 22.6 13.0 2.3 4.6 5.1 4.0 3.9 3.9 2.8 2.1 1.6 0.6 0.9 0.8 0.5 0.4 0.2 0.4 0.3 0.3 0.3 0.2 0.1 0.1 0.2 0.2 0.1 0.1 0.0 0.1 0.2 0.2 0.4 0.3
8.5 7.5 2.7 1.6 2.6 4.3 4.2 8.2 16.9 17.1 11.5 5.0 2.7 5.0 4.9 3.3 2.8 2.4 2.4 1.8 1.2 0.6 0.6 0.8 1.0 0.6 0.3 0.3 0.3 0.3 0.2 0.2 0.2 0.2 0.3 0.1 0.1 0.1 0.1 0.1 0.1 0.2 0.4 0.4
8.7 6.2 2.1 1.0 1.1 2.6 6.0 7.6 5.5 10.6 8.2 5.8 4.7 4.2 3.2 1.6 1.4 1.5 1.8 1.5 1.1 0.7 0.7 0.8 0.7 0.8 0.7 0.4 0.5 0.6 0.4 0.2 0.2 0.2 0.3 0.1 0.1 0.1 0.1 0.1 0.1 0.2 0.2 0.2
8.5 7.5 2.8 0.6 1.4 1.9 2.8 4.8 8.4 14.8 13.0 7.4 4.8 4.6 5.2 3.3 3.0 2.5 2.3 2.5 2.1 1.2 0.9 0.8 0.6 0.8 0.6 0.6 0.5 0.5 0.7 0.6 0.4 0.2 0.5 0.4 0.1 0.1 0.1 0.1 0.2 0.1 0.1 0.2
7.0 9.3 5.1 3.8 5.7 6.5 5.2 7.1 10.4 12.9 10.5 8.9 6.2 6.1 5.9 5.0 4.6 3.9 3.3 3.2 2.6 1.6 1.6 1.3 0.8 0.8 0.7 0.7 0.7 0.4 0.4 0.7 0.6 0.6 0.7 0.7 0.2 0.1 0.1 0.1 0.1 0.2 0.1 0.1
6.8 10.0 7.8 3.8 2.4 2.8 4.3 7.1 9.8 14.7 10.8 6.8 6.5 6.3 4.1 3.8 4.0 3.7 3.3 3.0 2.8 1.9 1.5 1.0 1.0 0.8 0.8 0.8 0.6 0.6 0.4 0.5 0.5 0.6 0.7 0.8 0.9 0.6 0.1 0.1 0.1 0.2 0.2 0.1
11.3 14.6 14.2 6.1 4.2 3.5 6.2 5.9 6.9 9.2 9.8 7.0 6.1 5.3 2.5 2.2 2.3 2.4 2.9 2.9 2.9 2.4 1.3 1.4 1.0 1.1 1.0 1.0 0.8 0.7 0.6 0.3 0.4 0.6 0.5 0.5 0.6 0.5 0.6 0.6 0.2 0.2 0.3 0.2
10.1 15.6 11.2 9.3 7.1 7.0 6.7 4.9 5.0 8.7 11.7 6.6 3.9 3.8 2.4 2.0 2.2 2.4 2.6 3.0 2.7 2.6 1.9 1.5 1.3 1.4 1.3 1.0 0.7 0.5 0.4 0.5 0.3 0.4 0.5 0.4 0.4 0.7 0.6 0.5 0.5 0.6 0.5 0.4
10.1 12.9 5.7 3.1 2.4 3.5 4.0 3.7 3.9 5.7 5.6 5.3 3.1 3.0 2.9 2.6 3.0 3.0 2.7 2.6 2.5 2.2 2.1 2.2 1.9 1.8 1.7 1.3 0.9 0.3 0.2 0.3 0.3 0.4 0.5 0.3 0.4 0.3 0.6 0.5 0.5 0.4 0.5 0.5
10.1 11.7 5.8 3.2 1.8 2.5 3.2 2.5 2.6 3.1 2.7 2.7 2.1 2.5 2.3 2.3 2.1 2.4 2.2 2.5 2.8 2.6 2.1 2.0 2.0 1.8 2.1 1.5 1.2 0.8 0.2 0.3 0.3 0.4 0.4 0.5 0.5 0.5 0.5 0.3 0.5 0.5 0.7 0.7
11.2 12.3 11.0 6.0 2.3 4.2 5.5 3.2 2.8 3.0 2.9 2.8 3.3 3.3 2.3 2.1 2.2 2.9 2.6 2.7 2.9 2.9 2.2 2.1 2.1 2.1 2.1 1.7 1.6 1.0 0.6 0.3 0.3 0.3 0.4 0.5 0.6 0.7 0.6 0.3 0.3 0.5 0.7 0.8
9.9 11.9 15.1 10.2 7.2 10.1 4.2 2.5 2.5 3.0 3.2 2.8 2.8 2.3 2.4 2.6 2.5 2.6 2.6 2.9 2.8 2.7 2.6 2.1 2.0 2.0 1.8 1.5 1.3 1.2 0.5 0.5 0.4 0.3 0.5 0.7 0.6 0.7 0.5 0.4 0.4 0.6 0.5 0.7
4.8 10.9 16.6 14.2 10.0 5.0 2.7 2.7 3.6 4.5 4.5 3.0 2.3 1.7 1.6 1.7 1.5 2.6 2.0 2.3 3.0 2.2 2.5 2.2 1.9 1.9 1.4 1.2 1.1 1.3 0.8 0.5 0.4 0.4 0.5 0.7 0.6 0.7 0.5 0.6 0.6 0.7 1.0 0.7
4.3 8.6 17.2 15.4 11.4 5.5 3.7 2.4 2.7 3.9 5.7 3.0 2.3 2.1 1.9 2.2 3.6 3.4 2.3 2.4 2.2 1.8 1.8 1.8 1.5 1.3 1.3 1.1 0.8 1.1 1.3 0.8 0.7 0.7 0.6 0.6 0.5 0.6 0.6 0.8 0.8 0.6 0.9 1.1
9.5 14.4 17.0 12.7 10.2 3.9 2.8 2.4 2.3 6.2 7.2 3.3 2.8 2.9 2.8 3.5 4.4 3.7 2.6 2.6 2.1 2.0 1.7 1.5 1.4 1.3 1.2 1.2 0.9 1.0 0.8 1.0 0.8 0.6 0.7 0.9 0.6 0.7 0.7 0.6 0.6 0.6 0.9 1.1
7.5 10.7 10.7 9.8 10.7 5.3 2.9 3.5 6.3 7.0 3.7 2.9 2.8 2.6 2.9 3.0 2.6 2.3 2.4 2.7 2.5 2.1 1.7 1.5 1.6 1.5 1.2 1.2 1.1 1.2 1.2 1.0 0.9 0.7 0.6 0.9 0.7 0.7 0.7 0.9 0.8 0.8 0.8 1.3
5.7 7.3 8.3 7.8 6.0 3.9 3.3 4.3 4.2 3.5 3.2 2.6 2.6 2.4 2.5 2.5 2.6 2.3 2.5 2.7 3.0 2.3 1.7 1.5 1.6 1.6 1.0 1.2 1.4 1.4 1.0 1.0 0.9 0.9 0.8 0.8 0.7 0.8 0.9 1.0 1.1 1.0 1.5 1.7
4.4 3.8 5.4 5.3 3.5 2.7 2.2 2.3 2.1 2.1 2.5 2.2 2.3 2.3 2.4 2.5 2.4 2.3 2.4 2.7 2.9 2.2 1.9 1.7 1.8 1.8 1.7 1.4 1.5 1.6 1.3 1.2 1.2 1.0 0.7 0.9 0.9 1.0 1.0 1.0 1.2 1.7 2.0 3.1
3.8 4.0 4.4 4.0 2.5 2.0 1.8 1.9 1.8 1.5 1.6 1.6 1.7 1.8 2.1 2.2 2.4 2.3 2.4 2.8 3.0 2.4 2.1 1.9 2.0 2.2 2.1 1.6 1.5 1.5 1.5 1.4 1.4 1.0 0.7 0.9 1.0 1.3 1.2 1.3 1.4 2.0 2.3 3.9
2.5 3.3 4.3 3.6 2.4 3.0 2.5 1.8 1.6 1.6 1.5 1.7 2.0 1.9 1.5 1.8 2.3 2.2 2.3 2.5 2.7 2.9 2.3 2.1 2.0 2.2 2.3 1.8 1.6 1.4 1.5 1.6 1.6 1.1 0.9 1.0 1.3 1.3 1.2 1.3 1.4 1.2 1.7 2.2